EDT,Max TemperatureF,Mean TemperatureF,Min TemperatureF,Max Dew PointF,MeanDew PointF,Min DewpointF,Max Humidity, Mean Humidity, Min Humidity, Max Sea Level PressureIn, Mean Sea Level PressureIn, Min Sea Level PressureIn, Max VisibilityMiles, Mean VisibilityMiles, Min VisibilityMiles, Max Wind SpeedMPH, Mean Wind SpeedMPH, Max Gust SpeedMPH,PrecipitationIn, CloudCover, Events, WindDirDegrees
2013-6-1,84,74,64,68,64,61,94,72,51,30.07,29.98,29.85,10,10,10,16,5,23,0.00,4,,130
2013-6-2,77,70,64,66,63,59,94,76,57,29.92,29.88,29.84,10,10,8,15,7,21,0.00,6,,154
2013-6-3,66,58,51,63,54,43,100,77,64,30.09,29.99,29.91,10,10,10,10,5,,0.00,7,,266
2013-6-4,71,54,37,54,44,37,100,68,38,30.19,30.14,30.09,10,9,1,10,2,,0.00,0,,287
2013-6-5,78,61,44,61,54,43,100,72,50,30.16,30.07,29.96,10,10,1,15,2,,0.00,2,,51
2013-6-6,71,66,62,66,63,61,100,92,73,29.97,29.88,29.78,10,8,3,13,5,16,0.00,8,Thunderstorm,90
2013-6-7,64,60,57,63,59,54,100,91,77,29.89,29.83,29.79,10,7,1,9,4,,0.00,8,,263
2013-6-8,71,63,53,59,54,52,100,79,56,30.14,30.01,29.90,10,9,0,7,3,,0.00,6,,203
2013-6-9,80,66,51,66,59,50,100,76,51,30.20,30.12,30.05,10,8,0,12,2,,0.00,4,,38
2013-6-10,71,68,64,70,65,63,100,88,73,30.06,29.91,29.83,10,9,4,12,4,17,0.00,6,,123
2013-6-11,77,70,62,66,63,61,100,85,61,29.94,29.89,29.84,10,9,2,13,6,20,0.00,6,,177
2013-6-12,82,72,62,72,66,61,100,80,61,29.96,29.91,29.79,10,10,5,9,4,,0.00,2,,175
2013-6-13,73,66,59,72,62,54,100,88,73,29.83,29.72,29.58,10,9,2,24,7,37,0.00,6,Thunderstorm,210
2013-6-14,71,63,55,59,55,52,100,82,53,30.09,29.98,29.84,10,10,5,8,4,,0.00,5,,238
2013-6-15,75,60,44,63,52,45,100,74,38,30.17,30.10,30.05,10,7,0,9,2,16,0.00,3,,191
2013-6-16,73,66,60,64,62,57,100,85,73,30.05,29.99,29.96,10,10,4,15,4,26,0.00,7,,150
2013-6-17,80,71,62,68,63,57,100,79,45,30.02,29.98,29.94,10,9,3,7,3,,0.00,4,,164
2013-6-18,73,66,60,66,63,57,100,89,73,29.99,29.92,29.90,10,8,2,8,2,,0.00,3,Thunderstorm,234
2013-6-19,75,63,51,57,52,46,94,70,38,30.18,30.09,30.00,10,10,10,9,5,16,0.00,1,,297
2013-6-20,78,61,44,63,53,45,100,73,39,30.26,30.22,30.18,10,8,0,7,1,,0.00,0,,277
2013-6-21,82,66,50,68,56,48,100,73,39,30.30,30.25,30.19,10,8,0,7,1,,0.00,0,,70
2013-6-22,84,68,53,70,63,54,100,78,55,30.25,30.19,30.12,10,8,1,10,2,,0.00,1,,138
2013-6-23,84,72,60,70,65,61,100,78,51,30.21,30.16,30.10,10,8,0,8,2,,0.00,1,,156
2013-6-24,86,73,60,68,64,59,100,75,48,30.19,30.13,30.06,10,9,1,8,2,,0.00,1,,164
2013-6-25,86,75,64,70,66,63,100,76,55,30.11,30.05,29.96,10,10,5,23,4,31,0.00,1,Thunderstorm,159
2013-6-26,78,71,64,70,67,63,100,87,65,30.02,29.94,29.85,10,8,1,10,4,,0.00,5,Thunderstorm,156
2013-6-27,71,68,64,70,67,64,100,96,88,29.85,29.76,29.70,10,6,0,9,2,,0.00,6,,155
2013-6-28,77,68,60,70,65,59,100,91,69,29.69,29.62,29.56,10,8,0,21,3,25,0.00,5,Thunderstorm,164
2013-6-29,77,66,55,64,62,55,100,85,61,29.73,29.65,29.59,10,9,0,9,3,,0.00,2,,153
2013-6-30,80,70,59,68,63,57,100,85,61,29.88,29.80,29.73,10,7,0,12,1,24,0.00,3,Thunderstorm,318